Miscellaneous Local Product
Issued by NWS Hastings, NE

Home | Current Version | Previous Version | Graphics & Text | Print | Product List | Glossary On
Versions: 1 2 3 4 5 6 7 8 9 10 11 12 13 14 15 16 17 18 19 20 21 22 23 24 25 26 27 28 29 30 31 32 33 34 35 36 37 38 39 40 41 42 43 44 45 46 47 48 49 50
000
AXUS43 KGID 240402
MISGRI

GID CWA HOURLY WEATHER ROUNDUP
NATIONAL WEATHER SERVICE HASTINGS NE
1000 PM CST TUE DEC 23 2014

NOTE: "FAIR" INDICATES FEW OR NO CLOUDS BELOW 12,000 FEET WITH NO
SIGNIFICANT WEATHER AND/OR OBSTRUCTIONS TO VISIBILITY.

...SOUTH CENTRAL NEBRASKA...

CITY           SKY/WX    TMP DP  RH WIND       PRES   REMARKS
GRAND ISLAND   CLOUDY    30  25  81 NW24G32   30.01S WCI  16
HASTINGS       CLOUDY    31  24  75 N26G33    30.01R WCI  17
KEARNEY        CLOUDY    30  23  74 NW23G29   30.03S WCI  17
ORD            CLOUDY    29  23  78 NW25G31   30.02S WCI  14
YORK           CLOUDY    32  28  86 N15G25    29.97R WCI  22
AURORA         CLOUDY    32  28  86 N22G33    29.99S WCI  19
LEXINGTON      CLOUDY    31  25  77 N22G28    30.05S WCI  18
HOLDREGE       CLOUDY    31  25  78 N17G28    30.02S WCI  19
HEBRON         FLURRIES  33  28  83 N20G28    29.98R WCI  21

...NEBRASKA PANHANDLE...

CITY           SKY/WX    TMP DP  RH WIND       PRES   REMARKS
CHADRON        FAIR       7   4  87 CALM      30.13F
ALLIANCE       FAIR      14  11  87 W8        30.10F WCI   3
SCOTTSBLUFF    FAIR      14  11  87 NW6       30.12F WCI   5
SIDNEY         FAIR      20  14  77 NW10      30.12S WCI   9

...WESTERN AND NORTH CENTRAL NEBRASKA...

CITY           SKY/WX    TMP DP  RH WIND       PRES   REMARKS
VALENTINE      FAIR      26  21  81 NW13      30.08S WCI  15
AINSWORTH      CLOUDY    27  24  85 NW21G32   30.06F WCI  14
ONEILL         CLOUDY    29  28  93 NW24G30   30.04R WCI  15
BROKEN BOW     CLOUDY    29  24  82 N23G33    30.03S WCI  15
IMPERIAL       FAIR      26  19  74 NW15      30.10F WCI  14
NORTH PLATTE   FAIR      22  19  89 W9        30.08F WCI  12
MCCOOK         FAIR      26  21  81 NW12      30.08F WCI  16

...EASTERN NEBRASKA...

CITY           SKY/WX    TMP DP  RH WIND       PRES   REMARKS
NORFOLK        LGT SNOW  32  29  88 NW20G32   29.96R FOG     WCI  20
SO SIOUX CITY  CLOUDY    35  32  88 NW22G29   29.92S WCI  23
TEKAMAH        CLOUDY    36  33  89 NW18      29.93R WCI  26
COLUMBUS       CLOUDY    34  25  69 NW22G29   29.98R WCI  22
ALBION         CLOUDY    31  26  82 NW21G30   29.99S WCI  19
OMAHA EPPLEY   LGT SNOW  36  34  92 NW16      29.92R FOG     WCI  26
MILLARD        LGT RAIN  36  33  90 NW14G23   29.91R WCI  27
LINCOLN        CLOUDY    35  32  88 N17       29.96R WCI  25
NEBRASKA CITY  MIX PCPN  33  33 100 N12       29.89S WCI  25
BEATRICE       LGT RAIN  33  32  94 N21       29.93R WCI  22
FALLS CITY     LGT RAIN  35  35 100 NW10      29.89R WCI  27

...NORTHERN KANSAS...

CITY           SKY/WX    TMP DP  RH WIND       PRES   REMARKS
GOODLAND       FAIR      24  20  84 N16       30.10F WCI  11
HILL CITY      CLOUDY    31  22  69 N23G32    30.07R WCI  18
NORTON         MOCLDY    28  21  74 NW20      30.05S WCI  15
PHILLIPSBURG   CLOUDY    34  27  75 NW20G25   30.05S WCI  22
SMITH CENTER   PTCLDY    30  25  80 NW23G30   30.02S WCI  17
BELOIT         CLOUDY    34  28  80 NW17G28   30.01R WCI  23
HAYS           CLOUDY    32  19  59 NW24G31   30.02S WCI  19
RUSSELL        CLOUDY    32  29  88 N20G28    30.02R WCI  20
CONCORDIA      LGT SNOW  33  30  88 NW15G26   29.97R FOG     WCI  23
SALINA         FLURRIES  35  31  85 NW22G30   29.98R WCI  23
TOPEKA         CLOUDY    39  33  79 N13G21    29.89R WCI  31



USA.gov is the U.S. government's official web portal to all federal, state and local government web resources and services.